Flag for Canada Weather past 2 weeks in Toronto, Ontario, Canada

Now
27 °F

Overcast.


Feels Like: 15 °F
Forecast: 22 / 29 °F
Wind: 14 mph from North

Location: Toronto Pearson International Airport

Current Time: Dec 18, 2014 at 10:24:43 PM

Latest Report: Dec 18, 2014 at 9:52 PM


Visibility: 15 mi

Pressure: 30.12 "Hg

Humidity: 80%

Dew point: 21 °F

Location of TorontoLocation

Historic Weather in Toronto — Graph

°F

Toronto temperature yesterday

Maximum temperature yesterday: 41 °F (at 3:48 AM)
Minimum temperature yesterday: 30 °F (at 10:00 PM)
Average temperature yesterday: 37 °F

Past Weeks' High & Low Weather Summary

 TemperatureHumidityPressure
High41 °F (Dec 6, 1:00 PM)100% (Dec 14, 2:00 AM)30.81 "Hg (Dec 14, 2:00 AM)
Low21 °F (Dec 7, 6:00 AM)34% (Dec 7, 1:00 PM)29.73 "Hg (Dec 16, 2:00 PM)
Average33 °F80%30.14 "Hg
* Reported Dec 3 9:00 PM — Dec 18 9:00 PM, Toronto, Weather by CustomWeather, © 2014

Note: Actual official high and low records may vary slightly from our data, if they occured in-between our weather recording intervals... More about our weather records

Advertising

Toronto weather history for previous 24 hours

 ConditionsComfort  
Time TempWeatherWind HumidityBarometerVisibility
9:00 PM
Dec 18
27 °FOvercast.13 mph74%30.12 "Hg15 mi
8:00 PM27 °FOvercast.17 mph74%30.14 "Hg15 mi
7:00 PM27 °FOvercast.14 mph80%30.14 "Hg15 mi
6:00 PM28 °FOvercast.16 mph74%30.12 "Hg15 mi
5:00 PM28 °FOvercast.14 mph80%30.11 "Hg15 mi
4:00 PM30 °FOvercast.16 mph75%30.10 "Hg15 mi
3:00 PM30 °FOvercast.16 mph80%30.09 "Hg15 mi
2:00 PM30 °FOvercast.14 mph80%30.09 "Hg15 mi
1:00 PM30 °FOvercast.12 mph75%30.09 "Hg15 mi
12:00 PM30 °FOvercast.13 mph80%30.11 "Hg15 mi
11:00 AM30 °FOvercast.15 mph75%30.12 "Hg15 mi
10:00 AM30 °FPartly sunny.16 mph75%30.12 "Hg15 mi
9:00 AM30 °FPartly sunny.15 mph75%30.11 "Hg15 mi
8:00 AM30 °FMostly cloudy.18 mph80%30.11 "Hg15 mi
7:00 AM30 °FOvercast.13 mph80%30.10 "Hg15 mi
6:00 AM30 °FOvercast.15 mph86%30.08 "Hg15 mi
5:00 AM30 °FMostly cloudy.13 mph86%30.06 "Hg15 mi
4:00 AM30 °FMostly cloudy.12 mph86%30.05 "Hg15 mi
3:00 AM30 °FOvercast.13 mph86%30.04 "Hg15 mi
2:00 AM32 °FOvercast.10 mph80%30.02 "Hg15 mi
1:00 AM32 °FPassing clouds.16 mph80%30.00 "Hg15 mi
12:00 AM32 °FPartly cloudy.15 mph80%29.99 "Hg15 mi
11:00 PM
Dec 17
30 °FLight snow. Mostly cloudy.16 mph86%29.98 "Hg10 mi
10:00 PM30 °FLight snow. Mostly cloudy.15 mph93%29.98 "Hg5 mi
Weather by CustomWeather, © 2014

See weather overviewHow to use our weather pages